Location: S�tio Afonso Gruber
(26.1760°S, 49.5250°W)
Time: 13:42:11
(UTC+00:00)

Okean-O - Visible Passes

Search period start: 21 September 2020 00:00
Search period end: 01 October 2020 00:00
Orbit: 639 x 640 km, 98.2° (Epoch: 20 September)

Date Brightness Start Highest point End Pass type
(mag) Time Alt. Az. Time Alt. Az. Time Alt. Az.
21 Sep 2.7 22:14:27 10° SSE 22:18:51 54° E 22:23:11 10° N visible
22 Sep 2.8 22:37:42 10° S 22:42:11 75° WSW 22:46:36 10° NNW visible
23 Sep 4.1 23:01:19 10° S 23:05:27 37° WSW 23:09:32 10° NW visible
24 Sep 3.6 21:48:44 10° SE 21:52:24 25° E 21:56:02 10° NNE visible
24 Sep 5.2 23:25:24 10° SSW 23:28:38 20° WSW 23:31:50 10° WNW visible
25 Sep 2.8 22:11:28 10° SSE 22:15:48 49° E 22:20:06 10° N visible
25 Sep 6.0 23:51:08 10° WSW 23:51:45 10° WSW 23:52:22 10° WSW visible
26 Sep 2.6 22:34:39 10° S 22:39:09 83° WSW 22:43:35 10° NNW visible
27 Sep 3.9 22:58:12 10° S 23:02:25 41° WSW 23:06:35 10° NW visible
28 Sep 3.8 21:45:50 10° SE 21:49:21 22° E 21:52:49 10° NNE visible
28 Sep 5.1 23:22:12 10° SSW 23:25:38 22° WSW 23:29:01 10° WNW visible
29 Sep 2.9 22:08:29 10° SSE 22:12:46 44° E 22:16:59 10° N visible
29 Sep 5.9 23:47:18 10° SW 23:48:45 11° WSW 23:50:13 10° W visible
30 Sep 2.5 22:31:37 10° SSE 22:36:07 88° ENE 22:40:33 10° NNW visible
